Flag for Canada Weather past 2 weeks in Chilliwack, British Columbia, Canada

Now
56 °F

Cool.


Feels Like: 56 °F
Forecast: 62 / 89 °F
Wind: 1 mph from Southeast

Location: Agassiz

Current Time: Aug 2, 2015 at 6:22:00 AM

Latest Report: Aug 2, 2015 at 6:00 AM


Visibility: N/A

Pressure: 29.93 "Hg

Humidity: 92%

Dew point: 54 °F

Location of ChilliwackLocation

Historic Weather in Chilliwack — Graph

°F

Chilliwack temperature yesterday

Maximum temperature yesterday: 88 °F (at 5:00 PM)
Minimum temperature yesterday: 55 °F (at 7:00 AM)
Average temperature yesterday: 72 °F

Past Weeks' High & Low Weather Summary

 TemperatureHumidityPressure
High93 °F (Jul 19, 4:00 PM)99% (Jul 25, 5:00 AM)30.28 "Hg (Jul 25, 5:00 AM)
Low54 °F (Jul 24, 3:00 AM)20% (Jul 29, 6:00 PM)29.85 "Hg (Jul 22, 8:00 PM)
Average68 °F64%30.02 "Hg
* Reported Jul 18 5:00 AM — Aug 2 5:00 AM, Chilliwack, Weather by CustomWeather, © 2015

Note: Actual official high and low records may vary slightly from our data, if they occured in-between our weather recording intervals... More about our weather records

Advertising

Chilliwack weather history for previous 24 hours

 ConditionsComfort  
Time TempWeatherWind HumidityBarometerVisibility
5:00 AM
Sun, Aug 2
57 °FCool.1 mph93%29.92 "HgN/A
4:00 AM58 °FCool.1 mph89%29.92 "HgN/A
3:00 AM58 °FCool.1 mph90%29.91 "HgN/A
2:00 AM60 °FCool.No wind88%29.91 "HgN/A
1:00 AM61 °FCool.1 mph87%29.90 "HgN/A
12:00 AM64 °FMild.2 mph78%29.91 "HgN/A
11:00 PM
Sat, Aug 1
67 °FMild.2 mph69%29.91 "HgN/A
10:00 PM75 °FMild.1 mph51%29.91 "HgN/A
9:00 PM75 °FMild.1 mph59%29.90 "HgN/A
8:00 PM84 °FPleasantly warm.3 mph38%29.88 "HgN/A
7:00 PM87 °FPleasantly warm.5 mph36%29.88 "HgN/A
6:00 PM88 °FHot.5 mph34%29.89 "HgN/A
5:00 PM88 °FHot.5 mph33%29.91 "HgN/A
4:00 PM88 °FHot.7 mph29%29.92 "HgN/A
3:00 PM87 °FPleasantly warm.6 mph31%29.94 "HgN/A
2:00 PM84 °FPleasantly warm.7 mph29%29.95 "HgN/A
1:00 PM83 °FPleasantly warm.5 mph36%29.97 "HgN/A
12:00 PM80 °FPleasantly warm.3 mph39%29.98 "HgN/A
11:00 AM76 °FMild.1 mph46%29.99 "HgN/A
10:00 AM73 °FMild.1 mph53%30.01 "HgN/A
9:00 AM68 °FMild.2 mph66%30.03 "HgN/A
8:00 AM62 °FCool.2 mph83%30.03 "HgN/A
7:00 AM55 °FCool.2 mph92%30.02 "HgN/A
6:00 AM56 °FCool.1 mph93%30.00 "HgN/A
Weather by CustomWeather, © 2015

See weather overviewHow to use our weather pages